Regional Weather Roundup
Issued by NWS

Home | Current Version | Previous Version | Graphics & Text | Print | Product List | Glossary Off
Versions: 1 2 3 4 5 6 7 8 9 10 11 12 13 14 15 16 17 18 19 20 21 22 23 24 25 26 27 28 29 30 31 32 33 34 35 36 37 38 39 40 41 42 43 44 45 46 47 48 49 50

000
ASUS43 KTOP 240008
RWRKS

WEATHER ROUNDUP FOR KANSAS
NATIONAL WEATHER SERVICE GOODLAND KS
600 PM CST SUN NOV 23 2014

NOTE:  "FAIR" INDICATES FEW OR NO CLOUDS BELOW 12,000 FEET WITH NO
SIGNIFICANT WEATHER AND/OR OBSTRUCTIONS TO VISIBILITY.

KSZ001>006-013>018-027>032-041>047-240100-
NORTHWEST KANSAS

CITY           SKY/WX    TMP DP  RH WIND       PRES   REMARKS
GOODLAND       CLEAR     39  10  30 N17       29.76R WCI  30
6HR MIN TEMP:  39; 6HR MAX TEMP:  48;

HAYS           CLOUDY    45  21  39 N12       29.66R
HILL CITY      CLOUDY    44  18  35 NW9       29.68R
6HR MIN TEMP:  44; 6HR MAX TEMP:  50;

RUSSELL        CLOUDY    43  28  55 NW12      29.63R
6HR MIN TEMP:  40; 6HR MAX TEMP:  45; 6HR PCP:  0.03;

$$

KSZ061>065-074>080-084>089-240100-
SOUTHWEST KANSAS

CITY           SKY/WX    TMP DP  RH WIND       PRES   REMARKS
DODGE CITY     CLOUDY    45  20  36 N13       29.69R
6HR MIN TEMP:  39; 6HR MAX TEMP:  47; 6HR PCP:  0.01;

ELKHART          N/A    N/A N/A N/A MISG        N/A
GARDEN CITY    CLOUDY    44  12  27 N20G29    29.71R
6HR MIN TEMP:  44; 6HR MAX TEMP:  48;

GREAT BEND     CLOUDY    43  27  52 NW10      29.66R
LIBERAL        CLOUDY    45  14  29 N21G28    29.75R
PRATT          CLOUDY    43  32  65 N17       29.65R
$$

KSZ066>073-081>083-090>101-240100-
SOUTHEAST KANSAS

CITY           SKY/WX    TMP DP  RH WIND       PRES   REMARKS
CHANUTE        CLOUDY    47  43  86 N21G35    29.40R
6HR MIN TEMP:  47; 6HR MAX TEMP:  60; 6HR PCP:  0.05;

COFFEYVILLE    CLOUDY    49  44  83 NW22G39   29.40R
6HR MIN TEMP:  49; 6HR MAX TEMP:  62; 6HR PCP:  0.14;

HUTCHINSON     CLOUDY    44  35  70 N17       29.59R
6HR MIN TEMP:  42; 6HR MAX TEMP:  54; 6HR PCP:  0.11;

MEDICINE LODGE   N/A     45  35  68 NW14G22   29.63R
NEWTON         CLOUDY    39  34  81 N17G26    29.57R WCI  30
PARSONS        LGT RAIN  47  45  93 N20G31    29.41R
6HR MIN TEMP:  47; 6HR MAX TEMP:  61; 6HR PCP:  0.14;

WICHITA INTL   CLOUDY    42  38  85 N18       29.57R
6HR MIN TEMP:  42; 6HR MAX TEMP:  59; 6HR PCP:  0.09;

WICHITA JABRA  LGT RAIN  40  40 100 N22G29    29.56R WCI  30
6HR MIN TEMP:  40; 6HR MAX TEMP:  57; 6HR PCP:  0.11;

WICHITA MCCONL LGT RAIN  41  41 100 N23G35    29.56R
WINFIELD       LGT RAIN  43  40  89 N28G36    29.54R
6HR MIN TEMP:  43; 6HR MAX TEMP:  60; 6HR PCP:  0.09;

$$

KSZ007>012-019>026-033>040-048>060-102>105-240100-
NORTHEAST KANSAS

CITY           SKY/WX    TMP DP  RH WIND       PRES   REMARKS
CONCORDIA      CLOUDY    41  35  79 NW8       29.60R
6HR MIN TEMP:  40; 6HR MAX TEMP:  47; 6HR PCP:  0.03;

EMPORIA        LGT RAIN  41  39  93 NW16G29   29.51R
6HR MIN TEMP:  42; 6HR MAX TEMP:  56; 6HR PCP:  0.13;

LAWRENCE       LGT RAIN  44  40  85 NW23G31   29.44R
6HR MIN TEMP:  44; 6HR MAX TEMP:  57; 6HR PCP:  0.14;

MANHATTAN      CLOUDY    42  38  85 VRB6      29.56R
6HR MIN TEMP:  42; 6HR MAX TEMP:  57; 6HR PCP:  0.05;

MARYSVILLE     CLOUDY    41  34  75 N18G25    29.55R
OLATHE IND     CLOUDY    44  42  93 NW23G37   29.41R
6HR MIN TEMP:  44; 6HR MAX TEMP:  57; 6HR PCP:  0.19;

OLATHE EXE     RAIN      45  44  97 N20G32    29.38R FOG
6HR MIN TEMP:  45; 6HR MAX TEMP:  57; 6HR PCP:  0.06;

SALINA         CLOUDY    43  36  76 NW13      29.61R
6HR MIN TEMP:  42; 6HR MAX TEMP:  48; 6HR PCP:  0.09;

TOPEKA BILLARD LGT RAIN  44  40  85 NW21G32   29.49R
6HR MIN TEMP:  44; 6HR MAX TEMP:  58; 6HR PCP:  0.25;

TOPEKA FORBES  RAIN      44  40  85 NW24G31   29.47R FOG
6HR MIN TEMP:  44; 6HR MAX TEMP:  58; 6HR PCP:  0.18;

$$



USA.gov is the U.S. government's official web portal to all federal, state and local government web resources and services.